Flag for Norway Weather past 2 weeks in Vadsø, Norway

Now
46 °F

Light rain. Partly cloudy.


Feels Like: 42 °F
Forecast: 44 / 47 °F
Wind: 9 mph from North

Location: Vadso

Current Time: Aug 20, 2014 at 11:28:08 PM

Latest Report: Aug 20, 2014 at 10:50 PM


Visibility: N/A

Pressure: 29.53 "Hg

Humidity: 87%

Dew point: 43 °F

Location of VadsøLocation

Historic Weather in Vadsø — Graph

°F

Vadsø temperature yesterday

Maximum temperature yesterday: 54 °F (at 10:50 AM)
Minimum temperature yesterday: 41 °F (at 4:50 AM)
Average temperature yesterday: 49 °F

Past Weeks' High & Low Weather Summary

 TemperatureHumidityPressure
High72 °F (Aug 7, 11:50 AM)100% (Aug 5, 9:50 PM)30.09 "Hg (Aug 5, 9:50 PM)
Low41 °F (Aug 19, 4:50 AM)56% (Aug 14, 11:50 AM)29.27 "Hg (Aug 13, 3:50 PM)
Average54 °F83%29.68 "Hg
* Reported Aug 5 9:50 PM — Aug 20 9:50 PM, Vadsø, Weather by CustomWeather, © 2014

Note: Actual official high and low records may vary slightly from our data, if they occured in-between our weather recording intervals... More about our weather records

Advertising

Vadsø weather history for previous 24 hours

 ConditionsComfort  
Time TempWeatherWind HumidityBarometerVisibility
9:50 PM
Aug 20
46 °FLight rain. Partly cloudy.12 mph87%29.53 "HgN/A
8:50 PM46 °FLight rain. Passing clouds.9 mph87%29.53 "HgN/A
7:50 PM48 °FLight rain. Passing clouds.9 mph87%29.50 "HgN/A
6:50 PM48 °FLight rain. Partly sunny.12 mph82%29.47 "HgN/A
5:50 PM48 °FLight rain. Partly sunny.12 mph82%29.47 "HgN/A
4:50 PM48 °FLight rain. Partly sunny.12 mph82%29.47 "HgN/A
3:50 PM48 °FLight rain. Partly sunny.14 mph87%29.45 "HgN/A
2:50 PM48 °FRain. Partly sunny.12 mph94%29.42 "HgN/A
2:20 PM48 °FRain. Partly sunny.9 mph94%29.42 "HgN/A
1:50 PM48 °FRain. Broken clouds.12 mph94%29.42 "HgN/A
12:50 PM48 °FRain. Broken clouds.29 mph87%29.36 "HgN/A
11:50 AM48 °FRain. Partly sunny.32 mph87%29.33 "HgN/A
9:50 AM48 °FRain. Partly sunny.33 mph87%29.33 "HgN/A
7:50 AM48 °FRain. Partly sunny.32 mph87%29.33 "HgN/A
6:20 AM48 °FRain. Partly sunny.32 mph87%29.36 "HgN/A
5:50 AM48 °FRain. Partly sunny.31 mph94%29.36 "HgN/A
4:50 AM48 °FRain. Broken clouds.31 mph94%29.39 "HgN/A
12:50 AM48 °FLight rain. Partly cloudy.25 mph94%29.47 "HgN/A
11:50 PM
Aug 19
48 °FLight rain. Passing clouds.25 mph94%29.47 "HgN/A
Weather by CustomWeather, © 2014

See weather overviewHow to use our weather pages